Location: ??????
(33.3472°N, 35.4764°E)
Time: 08:57:18
(UTC+00:00)

PAYLOAD A - Pass Details

Date: 21 August 2019
Orbit: 691 x 833 km, 98.3° (Epoch: 16 October)

Event Time Altitude Azimuth Distance (km) Brightness Sun altitude
Rises 01:47:03 0° 14° (NNE) 3,319 7.9 -15.9°
Reaches altitude 10° 01:49:26 10° 15° (NNE) 2,366 7.1 -15.5°
Maximum altitude 01:54:39 78° 102° (ESE) 791 4.1 -14.5°
Drops below altitude 10° 01:59:39 10° 189° (S) 2,260 6.1 -13.5°
Enters shadow 02:01:37 - 190° (S) 3,055 6.8 -13.2°
